Погода в Могилёве

Украина / Днепропетровская область     48°51′49″N   34°28′43″E
темп.,
°C
ветер,
м/с
пор.,
м/с
влажн.,
%
обл.,
%
осадки,
мм/ч
давл.,
гПа
погр.,
м
20 июня, вс
вс2000:00+21всв6157498 0.0 1016502
03:00+20в7166996 0.3 1015473
06:00+18в6167240 0.0 1016435
09:00+21в81664100 0.0 1015643
12:00+23в71361100 0.0 1015816
15:00+26в811543 0.0 10141130
18:00+25в610650 0.0 1014936
21:00+21всв410810 0.0 1014193
21 июня, пн
пн2100:00+19всв49864 0.0 1014179
03:00+17всв35880 0.0 101382
06:00+18всв358760 0.0 1013135
09:00+23в576764 0.0 1013501
12:00+27вюв68570 0.0 1013933
15:00+29вюв67530 0.0 10121321
18:00+28в585953 0.0 1012610
21:00+23в45721 0.0 101364
22 июня, вт
вт2200:00+21всв33835 0.6 101345
03:00+19всв51379100 0.6 1011194
06:00+19в4117693 0.0 1013243
09:00+23вюв5106475 0.1 1013415
12:00+27вюв7105070 0.8 1013799
15:00+29вюв69460 0.8 10131374
18:00+29вюв47535 0.0 1013429
21:00+24в33732 0.0 101332
23 июня, ср
ср2300:00+22всв337895 0.0 101338
03:00+20всв358279 0.0 101378
06:00+19всв3681100 0.0 1013151
09:00+24в51072100 0.0 1013470
12:00+28вюв695782 0.0 1014784
15:00+31ююв585060 0.0 10141126
18:00+28всв5871100 0.0 1015364
21:00+24в3570100 0.1 101666
24 июня, чт
чт2400:00+22в337796 0.0 101630
03:00+21всв227899 0.0 101618
06:00+21св357990 0.0 101693
09:00+26в475615 0.0 1016405
12:00+30в5843100 0.0 1016887
15:00+30вюв4752100 0.0 10161038
18:00+29в475650 0.0 1016351
21:00+25св2270100 0.0 101619